Regional Weather Roundup
Issued by NWS

Current Version | Previous Version | Text Only | Print | Product List | Glossary On
Versions: 1 2 3 4 5 6 7 8 9 10 11 12 13 14 15 16 17 18 19 20 21 22 23 24 25 26 27 28 29 30 31 32 33 34 35 36 37 38 39 40 41 42 43 44 45 46 47 48 49 50
000
ASUS45 KABQ 210610
RWRNM
WEATHER ROUNDUP FOR NEW MEXICO
NATIONAL WEATHER SERVICE ALBUQUERQUE NM
1200 AM MDT SUN SEP 21 2014

NOTE: "FAIR" MEANS FEW OR NO CLOUDS BELOW 12,000 FEET AGL WITH NO
       SIGNIFICANT WEATHER OR OBSTRUCTIONS TO VISION.

      THIS PRODUCT IS RELEASED AS TWO VERSIONS.  ONE VERSION NEAR
      THE TOP OF THE HOUR CONTAINING PRELIMINARY DATA FROM ALBUQUERQUE
      AND OTHER STATIONS.  A FINAL VERSION WITH ADDITIONAL DATA IS
      ISSUED ABOUT 10 MINUTES AFTER THE HOUR.

NMZ501-503-504-510>518-210700-
NORTHWEST PLATEAU/NORTHCENTRAL MOUNTAINS

CITY           SKY/WX    TMP DP  RH WIND       PRES   REMARKS
FARMINGTON     MOCLDY    76  44  32 SE8       30.16R
6HR MIN TEMP:  76; 6HR MAX TEMP:  90;

LOS ALAMOS     PTCLDY    65  50  57 SW9       30.36R
SANTA FE       PTCLDY    67  50  54 SE14      30.30R
6HR MIN TEMP:  67; 6HR MAX TEMP:  83;

TAOS           PTCLDY    66  46  48 SE13G22   30.36S
ANGEL FIRE     FAIR      51  42  73 CALM      30.49S

$$
NMZ402-403-502-505>509-210700-
WESTCENTRAL MOUNTAINS/SOUTHWEST MOUNTAINS

CITY           SKY/WX    TMP DP  RH WIND       PRES   REMARKS
GALLUP         PTCLDY    66  43  43 VRB5      30.27R
6HR MIN TEMP:  64; 6HR MAX TEMP:  84;

GRANTS         CLEAR     61  46  59 S8        30.31R
SILVER CITY    CLEAR     64  63  94 NW6       30.20R

$$
NMZ407-409-411-412-210700-
SOUTHERN DESERTS

CITY           SKY/WX    TMP DP  RH WIND       PRES   REMARKS
LORDSBURG      MOCLDY    70  64  83 MISG      30.09R
DEMING         MOCLDY    73  67  81 NE5       30.10R
6HR MIN TEMP:  73; 6HR MAX TEMP:  86;

LAS CRUCES     CLEAR     73  61  65 SE9       30.14R
HOLLOMAN AFB   PTCLDY    69  62  77 W8        30.10R
ALAMOGORDO     PTCLDY    68  61  77 NW5       30.12R
T OR C         PTCLDY    73  61  65 NE5       30.15R
6HR MIN TEMP:  72; 6HR MAX TEMP:  86;


$$
NMZ519>523-210700-
CENTRAL VALLEYS/CENTRAL HIGHLANDS

CITY           SKY/WX    TMP DP  RH WIND       PRES   REMARKS
ALBUQUERQUE    MOCLDY    73  53  49 E8        30.23R
6HR MIN TEMP:  73; 6HR MAX TEMP:  87;

DOUBLE EAGLE   PTCLDY    68  52  56 S12       30.27R
MORIARTY ARPT  FAIR      59  54  83 E5        30.33R
6HR MIN TEMP:  57; 6HR MAX TEMP:  79;

CLINES CORNERS CLOUDY    60  55  83 E8        30.36R
6HR MIN TEMP:  58; 6HR MAX TEMP:  73;

BELEN          FAIR      70  56  60 SE8       30.22R
6HR MIN TEMP:  70; 6HR MAX TEMP:  84;

SOCORRO        FAIR      73  58  59 CALM      30.19R
6HR MIN TEMP:  71; 6HR MAX TEMP:  86;


$$
NMZ524>526-539-540-210700-
SOUTHCENTRAL MOUNTAINS

CITY           SKY/WX    TMP DP  RH WIND       PRES   REMARKS
RUIDOSO        NOT AVBL

$$
NMZ527>531-210700-
NORTHEAST HIGHLANDS/NORTHEAST PLAINS

CITY           SKY/WX    TMP DP  RH WIND       PRES   REMARKS
LAS VEGAS      PTCLDY    55  48  77 NE6       30.39R
6HR MIN TEMP:  55; 6HR MAX TEMP:  74;

RATON          PTCLDY    62  46  55 NE6       30.35R
6HR MIN TEMP:  61; 6HR MAX TEMP:  79;

CLAYTON        PTCLDY    64  57  78 W6        30.27R
6HR MIN TEMP:  64; 6HR MAX TEMP:  81;


$$
NMZ532>537-210700-
EASTCENTRAL PLAINS

CITY           SKY/WX    TMP DP  RH WIND       PRES   REMARKS
TUCUMCARI      CLEAR     67  62  84 S6        30.19R
6HR MIN TEMP:  67; 6HR MAX TEMP:  83;

CANNON AFB     PTCLDY    66 N/A N/A E6        30.21S
6HR MIN TEMP:  67; 6HR MAX TEMP:  78;

CLOVIS AIRPORT   N/A     66  63  88 SE6       30.23S

$$
NMZ028-029-538-210700-
SOUTHEAST PLAINS

CITY           SKY/WX    TMP DP  RH WIND       PRES   REMARKS
ROSWELL        CLOUDY    73  68  84 E3        30.13S
6HR MIN TEMP:  73; 6HR MAX TEMP:  83;

CARLSBAD       CLOUDY    73  50  44 NE6       30.09S
6HR MIN TEMP:  73; 6HR MAX TEMP:  82;

HOBBS          CLOUDY    68  68 100 E12       30.13F FOG


$$



USA.gov is the U.S. government's official web portal to all federal, state and local government web resources and services.